Погода в Бобровке

Россия / Курская область     52°12′33″N   36°26′21″E
темп.,
°C
ветер,
м/с
пор.,
м/с
влажн.,
%
обл.,
%
осадки,
мм/ч
давл.,
гПа
погр.,
м
3 марта, ср
ср300:00−1ссз6139197 0.4 1014698
03:00−1ссз6129385 0.4 1016610
06:00−3ссз6149066 0.0 1017678
09:00−3ссз5129047 0.0 1020830
12:00−1ссз698395 0.1 1021986
15:000зсз588673 0.1 1021665
18:00−1з5118915 0.0 1019395
21:000з5118855 0.0 1019672
4 марта, чт
чт400:00−2з5129258 0.0 1017328
03:00−3зюз6129236 0.0 1016280
06:00−3зюз613900 0.0 1013292
09:00−2зюз816862 0.0 1012475
12:00+1зюз814860 0.0 1009627
15:00+2юз8159320 0.0 1006649
18:00+2зюз7169081 0.0 1003692
21:00+2зюз6149691 0.2 1003481
5 марта, пт
пт500:00+1з71393100 0.1 1002604
03:00+1з61296100 0.3 1003665
06:000з61295100 0.1 1004651
09:00−1ссз579499 0.4 1006466
12:00−2с458599 0.1 1008638
15:00−2ссв3481100 0.1 1010748
18:00−3ссв2387100 0.0 1011117
21:00−4с1288100 0.0 101426
6 марта, сб
сб600:00−4с228712 0.0 101528
03:00−6с239443 0.0 101690
06:00−7ссз22880 0.0 101628
09:00−6зюз11830 0.0 101689
12:00−3з578378 0.5 1017837
15:00−4з567572 0.7 1017953
18:00−5с368995 0.5 1017277
21:00−6ссз499062 0.5 1019438
7 марта, вс
вс700:00−7з378510 0.0 1019176
03:00−7юз510805 0.0 1018350
06:00−6юз7157458 0.0 1015575
09:00−5юз10177079 0.0 1012840
12:00−2зюз111868100 0.0 10101146
15:00−1зюз111972100 0.0 10061338
18:00−1зюз101779100 0.0 10041112
21:00−1зюз9177897 0.0 1003951